Regional Weather Roundup
Issued by NWS Albany, NY

Home | Current Version | Previous Version | Graphics & Text | Print | Product List | Glossary Off
Versions: 1 2 3 4 5 6 7 8 9 10 11 12 13 14 15 16 17 18 19 20 21 22 23 24 25 26 27 28 29 30 31 32 33 34 35 36 37 38 39 40 41 42 43 44 45 46 47 48 49

000
ASUS41 KALY 261110
RWRALY

NEW YORK STATE HOURLY WEATHER ROUNDUP
NATIONAL WEATHER SERVICE ALBANY NY
600 AM EST FRI DEC 26 2014

NOTE: "FAIR" INDICATES FEW OR NO CLOUDS BELOW 12,000 FEET WITH NO
SIGNIFICANT WEATHER AND/OR NO OBSTRUCTIONS TO VISIBILITY.

NYZ032-033-038>043-046>054-057>066-NYZ062>081-261200-
EAST


CITY           SKY/WX    TMP DP  RH WIND       PRES   REMARKS
ALBANY         CLOUDY    41  27  57 NW14      30.16R
GLENS FALLS    CLOUDY    40  29  64 SW3       30.11R
POUGHKEEPSIE   CLEAR     29  25  85 CALM      30.16R
NEWBURGH       CLEAR     32  28  86 CALM      30.16R
MONTGOMERY     CLEAR     31  25  78 S5        30.15R WCI  26
WHITE PLAINS   CLEAR     37  28  70 W6        30.16R WCI  32
ISLIP          CLEAR     36  30  79 SW8       30.16R WCI  30
NEW YORK CITY  CLEAR     41  29  62 W10       30.19R
CENTRAL PARK   CLEAR     40  28  62 W6        30.22R
$$

NYZ005>009-017-018-044>046-055-056-261200-
CENTRAL


CITY           SKY/WX    TMP DP  RH WIND       PRES   REMARKS
FULTON         CLOUDY    39  30  70 W10       30.19R WCI  32
SYRACUSE       CLOUDY    39  29  67 W13       30.19R WCI  31
ROME           CLOUDY    39  28  64 W14       30.19R WCI  31
ELMIRA         MOCLDY    34  27  75 W3        30.19R
BINGHAMTON     CLOUDY    35  27  72 W6        30.15R WCI  30
MONTICELLO     MOCLDY    34  27  75 NW7       30.14R WCI  28
$$

NYZ026>034-041>043-261200-
NORTH


CITY           SKY/WX    TMP DP  RH WIND       PRES   REMARKS
WATERTOWN      CLOUDY    40  29  64 W14       30.15R WCI  32
FORT DRUM      NOT AVBL
MASSENA        CLOUDY    38  29  70 SW14G23   30.07R WCI  30
SARANAC LAKE   CLOUDY    33  27  78 W10       30.02R WCI  25
PLATTSBURGH    CLOUDY    40  28  62 VRB7      30.05R
$$

NYZ001>004-010>016-019>021-261200-
WEST


CITY           SKY/WX    TMP DP  RH WIND       PRES   REMARKS
NIAGARA FALLS  CLEAR     36  31  82 SW12      30.17S WCI  28
BUFFALO        CLOUDY    38  31  76 SW15G23   30.18R WCI  29
DUNKIRK        CLOUDY    38  29  70 SW13      30.21R WCI  30
JAMESTOWN      CLOUDY    32  27  80 SW9       30.19R WCI  24
WELLSVILLE     MOCLDY    32  25  75 W7        30.17R WCI  26
ROCHESTER      MOCLDY    39  30  70 W13       30.17F WCI  31
PENN YAN       CLOUDY    38  27  64 SW9       30.19R WCI  31
$$

             KEY
       WCI = WIND CHILL INDEX
       VSB = VISIBILITY
       HX  = HEAT INDEX
$$



USA.gov is the U.S. government's official web portal to all federal, state and local government web resources and services.